Saint Martin Island, Sint Maarten

5:53 AM AST on December 08, 2016 (GMT -0400)
Princess Juliana International

Weather History for TNCM - October, 2014

Change the Weather History Date:

Monday, October 13, 2014

  Actual Average Record
Temperature  
Mean Temperature 78 °F -  
Max Temperature 82 °F 85 °F 91 °F (2004)
Min Temperature 74 °F 75 °F 37 °F (2002)
Cooling Degree Days 13    
Growing Degree Days 28 (Base 50)    
Moisture  
Dew Point 73 °F    
Average Humidity 80    
Maximum Humidity 94    
Minimum Humidity 66    
Precipitation  
Precipitation 0.20 in 0.15 in - ()
Sea Level Pressure  
Sea Level Pressure 29.80 in    
Wind  
Wind Speed 18 mph ()    
Max Wind Speed 40 mph    
Max Gust Speed 64 mph    
Visibility 5.9 miles    
Events Rain , Thunderstorm    
Averages and records for this station are not official NWS values.
T = Trace of Precipitation, MM = Missing Value Source: Averaged Metar Reports

Daily Weather History Graph

Daily Weather History Graph

Search for Another Location

Airport or City:

Trip Planner

Search our weather history database for the weather conditions in past years. The results will help you decide how hot, cold, wet, or windy it might be!

Date:

Astronomy

Oct. 13, 2014 Rise Set
Actual Time 6:05 AM AST 5:51 PM AST
Civil Twilight 5:43 AM AST 6:13 PM AST
Nautical Twilight 5:18 AM AST 6:38 PM AST
Astronomical Twilight 4:52 AM AST 7:04 PM AST
Moon 10:24 PM AST (10/13) 10:49 AM AST (10/13)
Length of Visible Light 12h 30m
Length of Day
11h 46m
Waning Gibbous, 70% of the Moon is Illuminated
Oct 13
Waning Gibbous
Oct 15
Last Quarter
Oct 23
New
Oct 30
First Quarter
Nov 6
Full

Hourly Weather History & Observations

Time (AST) Temp. Heat Index Dew Point Humidity Pressure Visibility Wind Dir Wind Speed Gust Speed Precip Events Conditions
12:00 AM 80.6 °F 86.2 °F 75.2 °F 84% 29.92 in 6.2 mi ENE 12.7 mph - N/A Rain Light Rain
1:00 AM 80.6 °F 85.4 °F 73.4 °F 79% 29.92 in 6.2 mi ENE 13.8 mph - N/A   Mostly Cloudy
2:00 AM 81 °F - 74 °F 73% 29.91 in 16 mi ENE 13.8 mph - -   Partly Cloudy
2:00 AM 80.6 °F 85.4 °F 73.4 °F 79% 29.89 in 6.2 mi ENE 12.7 mph - N/A   Scattered Clouds
3:00 AM 80.6 °F 85.4 °F 73.4 °F 79% 29.89 in 6.2 mi ENE 13.8 mph - N/A   Scattered Clouds
4:00 AM 80.6 °F 85.4 °F 73.4 °F 79% 29.86 in 6.2 mi ENE 15.0 mph - N/A   Mostly Cloudy
5:00 AM 82 °F - 72 °F 66% 29.88 in 19 mi ENE 15.0 mph - - Rain Light Rain Showers
5:00 AM 82.4 °F 88.2 °F 73.4 °F 74% 29.86 in 6.2 mi NE 18.4 mph - N/A   Mostly Cloudy
6:00 AM 82.4 °F 88.2 °F 73.4 °F 74% 29.89 in 6.2 mi ENE 18.4 mph - N/A   Scattered Clouds
7:00 AM 82.4 °F 87.2 °F 71.6 °F 70% 29.89 in 6.2 mi ENE 18.4 mph - N/A   Scattered Clouds
7:29 AM 78.8 °F - 71.6 °F 78% 29.89 in 1.9 mi ENE 26.5 mph - N/A Rain Rain Showers
8:00 AM 79 °F - 74 °F 79% 29.91 in 6 mi ENE 16.1 mph - - Rain Light Rain Showers
8:00 AM 78.8 °F - 73.4 °F 83% 29.92 in - ENE 18.4 mph 31.1 mph N/A Rain Light Rain Showers
9:00 AM 82.4 °F 88.2 °F 73.4 °F 74% 29.89 in 5.6 mi ENE 20.7 mph 35.7 mph N/A Rain Light Rain Showers
10:00 AM 80.6 °F 85.4 °F 73.4 °F 79% 29.89 in 5.6 mi NE 23.0 mph - N/A Rain Light Rain Showers
11:00 AM 81 °F - 71 °F 66% 29.87 in 7 mi ENE 23.0 mph - - Rain Light Rain Showers
11:00 AM 80.6 °F 84.6 °F 71.6 °F 74% 29.86 in 6.2 mi ENE 23.0 mph - N/A   Scattered Clouds
12:00 PM 82.4 °F 86.3 °F 69.8 °F 66% 29.83 in 6.2 mi NE 21.9 mph 36.8 mph N/A   Mostly Cloudy
1:00 PM 80.6 °F 84.6 °F 71.6 °F 74% 29.80 in 6.2 mi ENE 25.3 mph 41.4 mph N/A Rain Light Rain Showers
2:00 PM 74 °F - 71 °F 88% 29.76 in 5 mi NE 29.9 mph - - Rain Heavy Rain Showers
2:00 PM 75.2 °F - 71.6 °F 89% 29.74 in 5.0 mi NE 27.6 mph 44.9 mph N/A Rain Rain Showers
3:00 PM 75.2 °F - 71.6 °F 89% 29.68 in 3.7 mi NE 40.3 mph 63.3 mph N/A Rain Rain
4:00 PM 75.2 °F - 73.4 °F 94% 29.65 in 1.2 mi NNE 35.7 mph 55.2 mph N/A Rain Rain
5:00 PM 75 °F - 73 °F 92% 29.56 in 1 mi NNE 39.1 mph - - Rain Heavy Rain Showers
5:00 PM 75.2 °F - 73.4 °F 94% 29.55 in 0.6 mi NNE 39.1 mph 62.1 mph N/A Rain Heavy Rain Showers
6:00 PM 75.2 °F - 73.4 °F 94% 29.44 in 0.6 mi North 34.5 mph 59.8 mph N/A Rain Heavy Rain Showers
7:00 PM - - - N/A% 29.33 in - NW 39.1 mph 64.4 mph N/A Thunderstorm Heavy Thunderstorm